Temp
10 10 9 9 8 7 6 5 5 4 0 -0 -1 -3 -3 -4 -4 -4 -5 -7 -8 -7 -8 -9 -10 -10 -9 -10 -10 -9 -9 -6 -5 -6 -6 -7 -8 -8 -9 -8 -8 -11 -10 -5 -0 -1 -1 2 3 1 4 2 3 3 4 8 5 5 4 4 4 5 10
9 8 7 7 6 5 3 3 4 1 -1 -2 -3 -6 -5 -5 -5 -6 -8 -9 -10 -10 -10 -11 -11 -11 -11 -12 -11 -12 -11 -10 -10 -11 -9 -8 -9 -7 -9 -7 -9 -10 -10 -10 -7 -3 0 -0 3 -1 4 1 1 1 3 2 3 4 4 4 4 4 4
6 6 6 4 4 4 1 2 0 0 -1 -2 -3 -5 -6 -5 -6 -6 -7 -8 -9 -10 -11 -12 -12 -11 -13 -13 -13 -12 -12 -13 -12 -11 -11 -10 -9 -10 -9 -8 -7 -10 -11 -11 -9 -6 -5 -4 -2 -1 -1 2 2 1 2 1 2 3 3 4 4 3 2
6 4 4 3 2 1 0 -0 -1 -1 -1 -0 -3 -4 -3 -5 -5 -6 -6 -6 -7 -10 -11 -11 -12 -12 -13 -13 -12 -12 -13 -12 -13 -12 -11 -11 -11 -10 -10 -9 -9 -8 -9 -10 -11 -7 -6 -3 -3 -2 1 1 1 1 0 1 1 2 1 2 3 2 1
4 3 2 2 1 -0 -1 -1 -1 -1 -1 -2 -3 -3 -4 -5 -5 -5 -5 -5 -6 -6 -9 -10 -10 -11 -13 -14 -13 -12 -13 -13 -14 -12 -12 -12 -11 -11 -10 -10 -9 -9 -8 -10 -10 -9 -5 -4 -4 -2 -2 0 -2 -2 -1 -0 -1 0 1 1 2 2 2
2 3 2 2 1 0 -1 -2 -2 -2 -2 -3 -4 -5 -5 -5 -5 -5 -5 -5 -6 -7 -8 -9 -10 -10 -11 -12 -12 -10 -12 -13 -13 -11 -11 -10 -10 -10 -11 -11 -11 -10 -10 -9 -9 -9 -9 -5 -5 -5 -3 -2 -2 -3 -3 -2 -1 -4 -4 -4 -2 0 -1
2 2 1 1 -0 -1 -1 -1 -3 -3 -4 -5 -6 -6 -7 -7 -6 -5 -5 -5 -5 -6 -7 -8 -9 -10 -10 -11 -11 -11 -10 -10 -11 -11 -12 -11 -10 -9 -11 -11 -11 -10 -9 -8 -8 -8 -7 -7 -5 -3 -5 -3 -1 -1 -2 -4 -4 -5 -5 -5 -3 -2 -1
2 1 -1 -0 -1 -1 -2 -2 -3 -4 -5 -6 -6 -8 -8 -7 -7 -6 -6 -6 -5 -6 -7 -8 -8 -9 -9 -9 -9 -9 -10 -9 -10 -10 -11 -9 -10 -10 -11 -11 -11 -11 -10 -10 -9 -9 -9 -7 -7 -5 -3 -2 -4 -6 -6 -5 -8 -7 -5 -4 -2 -2 -3
2 -1 -2 -2 -2 -2 -2 -3 -3 -4 -6 -8 -8 -9 -9 -8 -7 -7 -7 -7 -6 -6 -6 -7 -8 -8 -9 -7 -5 -4 -4 -5 -5 -8 -10 -9 -10 -10 -11 -10 -10 -10 -10 -10 -10 -10 -7 -7 -6 -5 -4 -5 -6 -7 -6 -4 -4 -6 -4 -4 -4 -3 -1
1 -0 -1 -2 -2 -3 -3 -3 -3 -3 -2 -2 -6 -8 -9 -9 -8 -8 -7 -7 -6 -5 -5 -7 -8 -7 -4 -3 -2 -2 -1 -1 -1 -1 -4 -6 -8 -8 -9 -9 -10 -10 -9 -10 -10 -9 -8 -8 -7 -5 -4 -5 -5 -4 -4 -5 -6 -7 -6 -6 -6 -4 -3
-0 -1 -1 -1 -2 -4 -4 -4 -4 -2 3 7 7 -2 -6 -6 -4 -1 -2 -2 -3 -2 -0 -1 -2 -4 -1 -0 0 -0 1 1 2 2 1 1 0 -1 -5 -8 -8 -8 -8 -8 -7 -6 -6 -6 -6 -4 -4 -5 -5 -6 -7 -6 -6 -7 -7 -9 -10 -10 -6
-0 -1 -2 -3 -4 -4 -4 -4 -3 3 7 9 11 10 4 -1 -2 -1 1 1 2 3 3 3 3 3 1 0 0 -1 1 3 4 5 4 4 4 3 3 2 -1 -3 -4 -3 -4 -4 -5 -5 -6 -5 -5 -6 -7 -7 -7 -6 -7 -8 -8 -9 -9 -8 -9
-1 -2 -3 -4 -4 -5 -4 -5 -3 3 8 10 12 13 11 9 6 4 3 3 3 4 4 5 5 5 6 6 7 7 4 3 3 5 5 5 5 4 4 4 5 5 3 1 -2 -3 -4 -4 -5 -7 -6 -6 -7 -8 -9 -7 -8 -7 -7 -7 -8 -7 -6
-2 -1 -4 -5 -5 -5 -5 -5 -3 2 8 10 12 13 13 10 10 9 8 8 8 7 7 6 6 6 6 7 6 3 1 -1 -4 -5 -6 -5 -4 -4 -2 1 2 2 2 2 -0 -2 -5 -3 -3 -6 -5 -5 -4 -6 -7 -7 -7 -5 -6 -6 -7 -7 -7
-2 -3 -4 -5 -6 -6 -6 -5 -2 2 7 9 11 12 12 10 10 9 9 9 8 8 8 8 7 7 6 5 3 1 -4 -4 -5 -7 -7 -7 -7 -7 -6 -6 -5 -5 -5 -4 -3 -4 -4 -4 -3 -3 -3 -3 -3 -4 -3 -3 -3 -3 -6 -8 -10 -11 -9
-2 -3 -4 -5 -7 -7 -6 -5 -1 3 7 9 11 12 9 8 7 6 6 6 6 6 6 6 5 3 2 1 -0 1 3 2 -1 -5 -6 -6 -5 -6 -7 -7 -3 -1 2 -2 -3 -4 -4 -3 -2 3 -0 -1 -1 -2 0 -0 -4 -5 -8 -12 -12 -12 -10
-3 -3 -4 -5 -6 -7 -6 -5 -2 1 5 8 10 10 7 5 5 4 4 3 3 3 3 3 2 0 -1 -2 -3 -1 2 3 2 -2 -3 -3 -4 -5 -7 -6 -5 -1 4 8 10 11 11 11 11 12 13 13 12 9 1 -7 -7 -8 -15 -15 -14 -12 -14
-3 -3 -3 -4 -5 -5 -6 -5 -2 -0 2 7 9 8 5 4 2 2 2 1 2 2 1 1 2 2 -2 -4 -4 0 2 3 2 -3 -3 -4 -6 -7 -8 -6 -5 -7 -5 1 3 4 5 5 4 3 3 4 6 3 1 -5 -10 -11 -16 -14 -16 -15 -14
-3 -3 -2 -2 -3 -2 -4 -4 -2 -0 0 4 7 7 4 2 1 -1 -1 -1 -2 -1 -1 -0 1 1 1 -1 -2 1 4 6 4 1 -0 -2 -3 -5 -7 -5 -7 -9 -9 -9 -9 -7 -6 -6 -3 -4 -5 -5 -3 -2 -2 -6 -8 -14 -15 -15 -15 -15 -17
-3 -3 -3 -2 -3 -4 -3 -4 -4 -3 -1 2 6 8 5 3 0 -1 -1 -1 -1 -2 -2 -2 -5 -3 -0 1 2 2 3 5 5 2 -0 -1 -3 -5 -6 -4 -5 -5 -5 -6 -6 -7 -8 -9 -8 -9 -9 -10 -10 -8 -7 -6 -8 -11 -13 -14 -15 -16 -17
-4 -5 -4 -3 -3 -4 -4 -4 -5 -4 -2 -1 -0 3 1 -1 -2 -2 -3 -4 -5 -5 -6 -6 -6 -8 -4 -2 -0 0 1 6 8 5 3 2 -1 -1 0 1 -2 -4 -2 -5 -8 -9 -9 -9 -10 -11 -13 -13 -13 -13 -12 -11 -9 -9 -12 -13 -15 -16 -16
-5 -6 -6 -5 -4 -5 -5 -4 -4 -6 -4 -3 -2 0 1 -2 -3 -2 -5 -6 -6 -6 -7 -6 -7 -8 -6 -3 -2 -1 3 6 6 5 3 2 4 4 4 1 -2 -5 -7 -8 -9 -9 -9 -10 -10 -11 -13 -14 -15 -14 -14 -14 -13 -12 -12 -11 -12 -13 -16
-6 -6 -7 -6 -5 -5 -5 -5 -6 -5 -6 -5 -3 -2 -2 -2 -3 -2 -3 -6 -8 -7 -7 -6 -7 -6 -3 -3 -1 -0 2 3 2 2 0 2 2 1 1 -0 -3 -5 -7 -8 -9 -10 -11 -11 -11 -13 -13 -13 -15 -15 -15 -15 -14 -14 -14 -13 -12 -11 -11
-7 -7 -8 -8 -6 -4 -4 -5 -7 -7 -5 -6 -4 -4 -2 -2 -1 -1 -4 -5 -7 -6 -6 -7 -7 -7 -3 -2 -1 0 0 0 -0 -2 -0 0 -0 -1 -1 -4 -6 -8 -9 -10 -11 -12 -12 -12 -12 -13 -13 -13 -14 -14 -15 -14 -14 -15 -15 -15 -14 -13 -12
-7 -8 -8 -8 -8 -6 -4 -5 -7 -8 -7 -5 -5 -4 -3 -2 -2 -2 -1 -4 -5 -5 -5 -4 -2 -2 -2 -1 -1 -0 -1 -2 -2 -2 -2 -2 -3 -3 -6 -8 -10 -11 -12 -13 -13 -13 -13 -13 -13 -12 -12 -13 -14 -13 -14 -17 -18 -16 -15 -15 -15 -15 -13
-8 -9 -9 -9 -8 -7 -6 -5 -6 -7 -8 -7 -6 -5 -4 -3 -2 -2 -2 -2 -3 -3 -3 -2 -2 -2 -2 -2 -3 -4 -6 -7 -7 -5 -5 -5 -5 -7 -9 -10 -12 -12 -14 -15 -14 -14 -15 -14 -13 -13 -13 -14 -14 -15 -15 -17 -18 -20 -18 -19 -18 -18 -17
-9 -9 -9 -9 -8 -7 -7 -7 -6 -7 -9 -10 -12 -11 -10 -8 -7 -5 -4 -6 -6 -6 -7 -6 -5 -5 -4 -5 -4 -4 -5 -5 -5 -6 -7 -8 -8 -9 -10 -11 -12 -13 -14 -14 -14 -14 -14 -13 -13 -13 -14 -15 -17 -17 -16 -16 -16 -17 -17 -18 -19 -19 -18
-9 -9 -8 -8 -7 -8 -8 -8 -7 -6 -7 -9 -11 -12 -13 -14 -13 -13 -13 -13 -12 -12 -11 -10 -8 -8 -8 -11 -11 -11 -14 -12 -13 -12 -12 -12 -13 -13 -12 -11 -10 -9 -12 -13 -13 -13 -14 -14 -14 -16 -15 -16 -17 -16 -16 -17 -17 -18 -18 -18 -19 -20 -20
-6 -6 -5 -6 -7 -8 -8 -7 -7 -5 -3 -6 -6 -9 -12 -13 -13 -13 -13 -11 -8 -8 -10 -11 -12 -13 -14 -15 -15 -15 -16 -16 -17 -16 -15 -15 -16 -16 -16 -16 -19 -16 -15 -14 -15 -15 -16 -16 -16 -16 -16 -16 -17 -17 -17 -18 -18 -17 -18 -19 -20 -20 -19
-4 -3 -4 -5 -5 -5 -7 -6 -3 -1 -1 -2 -2 -2 -2 -2 -2 -2 -4 -4 -2 -3 -6 -7 -9 -10 -12 -14 -16 -17 -17 -16 -17 -17 -17 -18 -15 -15 -17 -16 -17 -17 -16 -16 -16 -16 -17 -17 -17 -17 -17 -17 -18 -17 -17 -17 -15 -18 -18 -20 -20 -20 -20
-1 -1 -1 -3 -6 -5 -3 -4 -4 -3 -3 -2 -2 -2 -1 -1 -1 -1 -1 -1 -3 -6 -8 -9 -11 -11 -12 -13 -14 -14 -14 -14 -16 -16 -16 -16 -17 -17 -16 -15 -16 -16 -16 -16 -17 -17 -17 -16 -17 -17 -17 -17 -17 -17 -16 -17 -16 -16 -17 -19 -19 -19 -19
-1 -1 -1 -1 -2 -4 -5 -4 -3 -3 -2 -2 -2 -1 -1 -1 -0 -1 -1 -1 -2 -7 -9 -10 -11 -12 -13 -14 -15 -14 -14 -15 -16 -15 -15 -16 -17 -17 -16 -17 -17 -15 -16 -16 -17 -17 -17 -17 -17 -16 -16 -16 -16 -16 -17 -17 -17 -18 -18 -18 -18 -18 -18
-1 -1 -1 -1 -1 -1 -2 -3 -3 -2 -2 -1 -1 -1 -2 -1 -2 -2 -2 -3 -7 -10 -11 -11 -12 -12 -13 -14 -14 -14 -15 -15 -15 -15 -15 -16 -16 -16 -15 -16 -15 -13 -15 -16 -16 -16 -16 -16 -16 -15 -16 -16 -16 -16 -18 -17 -17 -17 -17 -18 -18 -18 -18
-3 -3 -3 -2 -2 -2 -2 -2 -2 -2 -2 -2 -2 -2 -3 -4 -5 -3 -3 -5 -10 -11 -12 -12 -13 -13 -13 -14 -14 -14 -14 -15 -14 -15 -15 -15 -15 -15 -15 -14 -15 -17 -16 -16 -15 -15 -15 -15 -15 -15 -16 -16 -16 -16 -16 -17 -17 -17 -18 -18 -18 -19 -19
-7 -5 -4 -5 -5 -5 -4 -4 -4 -4 -4 -4 -4 -5 -4 -4 -8 -11 -11 -11 -10 -10 -11 -12 -12 -13 -13 -14 -14 -14 -15 -15 -15 -15 -15 -15 -15 -15 -16 -16 -16 -16 -16 -16 -16 -16 -16 -15 -16 -16 -15 -16 -16 -17 -17 -17 -17 -17 -17 -18 -18 -18 -19
-10 -9 -7 -6 -6 -5 -6 -6 -6 -6 -6 -6 -5 -5 -5 -10 -12 -12 -13 -13 -13 -13 -13 -12 -13 -13 -13 -14 -14 -14 -15 -14 -15 -15 -15 -15 -15 -15 -15 -16 -16 -16 -16 -16 -16 -16 -15 -15 -16 -16 -16 -16 -16 -17 -17 -17 -17 -17 -17 -17 -17 -17 -18
MSLP
1032.90 1033.38 1033.86 1034.30 1034.70 1035.02 1035.42 1035.74 1036.02 1036.26 1036.50 1036.66 1036.82 1037.02 1037.14 1037.30 1037.38 1037.38 1037.46 1037.58 1037.66 1037.82 1037.86 1037.82 1037.78 1037.86 1037.98 1038.14 1038.14 1038.14 1038.22 1038.18 1038.14 1038.14 1038.14 1038.18 1038.26 1038.14 1038.26 1038.30 1038.10 1037.62 1036.02 1035.58 1035.70 1035.50 1035.26 1034.86 1034.62 1034.06 1033.94 1033.58 1033.34 1033.14 1033.06 1032.90 1032.78 1032.58 1032.34 1032.02 1031.70 1031.38 1031.18
1032.74 1033.18 1033.66 1034.14 1034.54 1034.94 1035.30 1035.58 1035.82 1036.10 1036.30 1036.42 1036.62 1036.82 1037.06 1037.10 1037.14 1037.14 1037.18 1037.42 1037.42 1037.62 1037.70 1037.66 1037.62 1037.66 1037.82 1037.98 1037.94 1038.02 1038.02 1038.02 1038.02 1037.98 1037.94 1037.94 1037.98 1037.90 1037.90 1037.94 1037.98 1037.34 1036.90 1035.14 1035.34 1035.34 1035.02 1034.86 1034.70 1034.14 1033.74 1033.62 1033.18 1033.02 1032.86 1032.66 1032.46 1032.26 1032.10 1031.82 1031.46 1031.22 1031.02
1032.58 1033.10 1033.58 1034.06 1034.42 1034.78 1035.14 1035.34 1035.54 1035.78 1035.98 1036.14 1036.26 1036.42 1036.62 1036.74 1036.74 1036.70 1036.78 1036.98 1037.06 1037.22 1037.34 1037.34 1037.38 1037.38 1037.62 1037.74 1037.74 1037.74 1037.82 1037.86 1037.82 1037.86 1037.74 1037.66 1037.74 1037.66 1037.54 1037.62 1037.46 1037.30 1036.58 1035.90 1034.98 1035.14 1034.94 1034.78 1034.50 1034.26 1033.54 1033.50 1033.26 1033.02 1032.78 1032.42 1032.18 1031.90 1031.66 1031.50 1031.26 1031.06 1030.86
1032.62 1033.18 1033.58 1033.94 1034.30 1034.58 1034.86 1035.10 1035.30 1035.50 1035.66 1035.74 1035.90 1036.02 1036.10 1036.26 1036.30 1036.34 1036.46 1036.58 1036.66 1036.82 1036.94 1036.86 1036.98 1037.02 1037.26 1037.42 1037.34 1037.34 1037.54 1037.58 1037.58 1037.58 1037.50 1037.42 1037.42 1037.38 1037.22 1037.18 1037.22 1036.98 1036.70 1035.90 1035.46 1034.42 1034.86 1034.46 1034.38 1033.86 1033.66 1033.26 1032.98 1032.78 1032.46 1032.26 1031.86 1031.70 1031.46 1031.18 1030.90 1030.78 1030.70
1032.66 1033.02 1033.34 1033.62 1033.90 1034.22 1034.54 1034.74 1034.98 1035.14 1035.30 1035.50 1035.62 1035.66 1035.70 1035.74 1035.82 1035.90 1036.06 1036.18 1036.30 1036.42 1036.50 1036.54 1036.54 1036.58 1036.86 1037.02 1036.90 1036.94 1037.06 1037.14 1037.10 1037.14 1037.22 1037.02 1037.02 1037.06 1036.90 1036.94 1036.78 1036.66 1036.58 1036.10 1035.34 1034.42 1034.46 1034.42 1034.10 1033.74 1033.34 1033.10 1032.78 1032.38 1032.14 1031.86 1031.66 1031.42 1031.18 1030.94 1030.58 1030.42 1030.42
1032.50 1032.62 1032.98 1033.38 1033.62 1033.90 1034.22 1034.50 1034.70 1034.82 1034.94 1035.10 1035.26 1035.38 1035.38 1035.38 1035.46 1035.58 1035.70 1035.82 1035.94 1036.02 1036.10 1036.10 1036.10 1036.22 1036.42 1036.50 1036.42 1036.26 1036.42 1036.62 1036.50 1036.66 1036.66 1036.54 1036.54 1036.58 1036.62 1036.54 1036.46 1036.38 1036.18 1035.90 1035.10 1034.82 1033.94 1033.90 1033.78 1033.18 1032.94 1032.74 1032.62 1032.30 1031.74 1031.30 1031.14 1031.10 1031.10 1030.98 1030.42 1029.90 1030.14
1032.18 1032.54 1032.82 1033.18 1033.50 1033.70 1033.94 1034.14 1034.34 1034.50 1034.66 1034.82 1034.90 1034.98 1034.98 1035.06 1035.18 1035.30 1035.38 1035.42 1035.54 1035.62 1035.70 1035.70 1035.74 1035.78 1035.90 1035.94 1035.90 1035.86 1035.86 1035.98 1036.06 1036.10 1035.98 1035.98 1036.02 1036.06 1036.06 1036.06 1035.94 1035.86 1035.66 1035.26 1034.78 1034.22 1034.02 1033.50 1033.26 1033.22 1032.34 1032.14 1032.22 1031.98 1031.78 1031.38 1030.90 1030.70 1030.74 1030.78 1030.66 1029.58 1029.50
1031.90 1032.38 1032.74 1032.98 1033.22 1033.46 1033.70 1033.86 1034.02 1034.18 1034.34 1034.42 1034.50 1034.62 1034.70 1034.74 1034.86 1034.94 1035.02 1035.10 1035.14 1035.22 1035.22 1035.22 1035.26 1035.26 1035.30 1035.34 1035.34 1035.38 1035.34 1035.46 1035.42 1035.54 1035.50 1035.46 1035.62 1035.66 1035.66 1035.58 1035.46 1035.42 1035.22 1034.90 1034.54 1033.98 1033.50 1033.22 1032.94 1032.54 1032.26 1031.94 1031.90 1031.70 1031.42 1031.30 1031.18 1030.82 1030.42 1030.30 1030.14 1029.82 1029.58
1031.74 1032.22 1032.62 1032.90 1033.06 1033.26 1033.42 1033.54 1033.58 1033.74 1033.90 1034.02 1034.18 1034.34 1034.30 1034.42 1034.54 1034.62 1034.66 1034.66 1034.70 1034.74 1034.74 1034.74 1034.74 1034.70 1034.70 1034.74 1034.66 1034.62 1034.62 1034.66 1034.70 1034.86 1034.82 1034.82 1035.06 1035.10 1035.14 1035.06 1034.98 1034.82 1034.66 1034.38 1034.14 1033.54 1033.26 1032.82 1032.26 1031.90 1031.66 1031.46 1031.42 1031.34 1031.14 1031.14 1031.18 1030.78 1030.78 1030.46 1029.98 1028.90 1029.06
1031.54 1031.86 1032.10 1032.46 1032.78 1032.98 1033.10 1033.18 1033.26 1033.30 1033.42 1033.50 1033.66 1033.82 1034.02 1034.14 1034.26 1034.34 1034.30 1034.22 1034.06 1033.98 1033.98 1033.98 1034.02 1034.02 1033.94 1033.86 1033.86 1033.86 1033.82 1033.82 1033.86 1033.86 1033.94 1033.98 1034.22 1034.34 1034.46 1034.46 1034.38 1034.18 1034.02 1033.82 1033.42 1032.94 1032.66 1032.18 1031.42 1031.30 1031.26 1031.18 1031.06 1031.18 1031.14 1031.10 1031.06 1030.78 1030.38 1030.42 1029.94 1029.14 1028.58
1031.30 1031.62 1031.86 1032.02 1032.22 1032.46 1032.66 1032.74 1032.78 1032.90 1032.78 1032.46 1032.42 1033.02 1033.38 1033.50 1033.42 1033.34 1033.34 1033.34 1033.22 1033.02 1032.90 1032.90 1033.06 1033.14 1033.10 1033.06 1033.06 1033.10 1033.06 1033.02 1032.98 1032.94 1032.98 1033.02 1033.14 1033.30 1033.50 1033.66 1033.58 1033.26 1033.26 1033.10 1032.50 1032.10 1031.98 1031.58 1030.90 1030.74 1031.10 1031.02 1031.02 1031.14 1031.14 1031.06 1030.94 1030.74 1030.50 1030.34 1029.94 1028.82 1028.02
1030.90 1031.22 1031.50 1031.74 1031.98 1032.10 1032.10 1032.22 1032.34 1032.30 1031.90 1031.66 1031.42 1031.50 1031.98 1032.38 1032.50 1032.50 1032.46 1032.38 1032.26 1032.02 1031.94 1031.86 1031.90 1031.94 1032.14 1032.26 1032.30 1032.38 1032.30 1032.10 1031.98 1031.94 1031.94 1032.02 1032.10 1032.22 1032.30 1032.34 1032.38 1032.30 1032.18 1031.94 1031.66 1031.26 1031.10 1031.30 1030.54 1030.54 1030.90 1030.82 1031.02 1030.94 1030.94 1030.78 1030.70 1030.54 1030.30 1029.98 1029.70 1029.14 1028.54
1030.66 1030.86 1031.10 1031.30 1031.42 1031.58 1031.70 1031.78 1031.90 1031.78 1031.30 1031.06 1030.86 1030.74 1030.70 1030.90 1031.22 1031.42 1031.50 1031.50 1031.46 1031.38 1031.30 1031.18 1031.14 1031.14 1031.14 1031.18 1031.22 1031.18 1031.26 1031.30 1031.26 1031.18 1031.18 1031.26 1031.34 1031.38 1031.46 1031.46 1031.34 1031.22 1031.10 1031.22 1031.14 1030.78 1030.34 1030.82 1030.54 1030.54 1030.46 1030.78 1030.78 1030.78 1030.62 1030.42 1030.22 1030.06 1029.78 1029.50 1029.18 1028.62 1028.30
1030.22 1030.46 1030.70 1030.90 1031.06 1031.18 1031.22 1031.30 1031.50 1031.38 1030.90 1030.58 1030.38 1030.26 1030.14 1030.22 1030.26 1030.30 1030.34 1030.34 1030.38 1030.46 1030.50 1030.50 1030.54 1030.54 1030.42 1030.38 1030.42 1030.50 1030.62 1030.82 1030.98 1031.10 1031.22 1031.26 1031.30 1031.30 1031.26 1031.18 1030.98 1030.86 1030.86 1030.90 1030.74 1030.54 1030.06 1030.06 1030.70 1030.10 1030.22 1030.42 1030.58 1030.50 1030.14 1029.90 1029.38 1029.26 1028.94 1028.74 1028.46 1028.46 1028.42
1029.74 1029.98 1030.30 1030.58 1030.74 1030.86 1030.82 1030.86 1031.02 1030.90 1030.50 1030.22 1029.98 1029.82 1029.78 1029.74 1029.78 1029.78 1029.78 1029.74 1029.74 1029.78 1029.82 1029.82 1029.86 1029.90 1029.94 1030.06 1030.26 1030.46 1030.66 1030.82 1030.90 1031.06 1031.14 1031.18 1031.10 1031.14 1031.06 1030.98 1030.82 1030.74 1030.78 1030.74 1030.58 1030.30 1029.98 1029.90 1030.18 1029.94 1029.86 1029.86 1029.82 1029.62 1029.30 1028.98 1028.74 1028.82 1028.86 1028.94 1028.98 1028.70 1028.38
1029.42 1029.62 1029.82 1030.06 1030.34 1030.46 1030.34 1030.38 1030.50 1030.34 1029.98 1029.74 1029.58 1029.46 1029.46 1029.54 1029.62 1029.58 1029.58 1029.58 1029.58 1029.58 1029.58 1029.66 1029.78 1029.86 1029.90 1029.98 1030.06 1030.14 1030.26 1030.30 1030.42 1030.62 1030.62 1030.58 1030.50 1030.54 1030.54 1030.34 1030.14 1030.06 1030.06 1030.06 1029.94 1029.78 1029.58 1029.42 1029.34 1029.06 1028.86 1028.74 1028.62 1028.54 1028.38 1028.58 1028.82 1028.94 1028.78 1028.70 1028.30 1027.58 1027.46
1028.90 1029.14 1029.38 1029.58 1029.82 1029.94 1029.86 1029.90 1029.98 1030.02 1029.74 1029.46 1029.30 1029.26 1029.30 1029.46 1029.50 1029.46 1029.42 1029.34 1029.42 1029.46 1029.42 1029.46 1029.58 1029.78 1029.86 1029.94 1029.90 1029.94 1029.98 1029.94 1029.98 1029.98 1029.90 1029.78 1029.70 1029.70 1029.78 1029.42 1029.54 1029.46 1029.30 1028.90 1028.46 1028.06 1027.78 1027.54 1027.42 1027.34 1027.18 1027.18 1027.22 1027.46 1028.18 1028.70 1028.58 1028.38 1028.66 1028.58 1027.74 1026.70 1027.18
1028.54 1028.74 1028.94 1029.06 1029.22 1029.38 1029.42 1029.38 1029.54 1029.66 1029.58 1029.26 1029.06 1029.02 1029.14 1029.26 1029.30 1029.30 1029.22 1029.10 1029.14 1029.18 1029.10 1029.06 1029.14 1029.26 1029.46 1029.58 1029.58 1029.58 1029.50 1029.46 1029.50 1029.46 1029.42 1029.38 1029.22 1029.06 1028.98 1028.66 1028.86 1028.90 1028.82 1028.62 1028.30 1028.10 1027.90 1027.78 1027.66 1027.50 1027.54 1027.54 1027.50 1027.58 1027.74 1028.06 1028.02 1028.18 1028.66 1028.18 1028.14 1026.78 1026.66
1028.06 1028.30 1028.42 1028.58 1028.74 1028.90 1029.02 1029.02 1029.10 1029.22 1029.30 1029.14 1028.82 1028.74 1028.90 1029.02 1029.10 1029.06 1028.94 1028.94 1028.94 1028.94 1028.86 1028.70 1028.74 1028.82 1028.94 1028.98 1029.06 1029.10 1028.94 1028.66 1028.74 1028.66 1028.66 1028.66 1028.54 1028.18 1027.94 1027.90 1028.26 1028.30 1028.26 1028.22 1028.22 1028.02 1028.02 1027.82 1027.78 1027.70 1027.70 1027.58 1027.50 1027.58 1027.78 1027.94 1027.94 1028.26 1028.30 1027.86 1027.58 1027.54 1027.26
1027.66 1027.82 1027.94 1028.14 1028.42 1028.54 1028.58 1028.66 1028.66 1028.82 1028.90 1028.86 1028.54 1028.26 1028.30 1028.42 1028.58 1028.42 1028.34 1028.38 1028.42 1028.34 1028.22 1028.26 1028.42 1028.54 1028.54 1028.54 1028.50 1028.50 1028.46 1028.26 1028.18 1028.14 1028.06 1028.22 1027.98 1027.70 1027.14 1027.54 1027.70 1027.62 1027.58 1027.38 1027.42 1027.30 1027.50 1027.38 1027.46 1027.50 1027.50 1027.46 1027.46 1027.50 1027.54 1027.46 1027.62 1027.74 1027.86 1027.62 1027.42 1027.42 1027.54
1027.34 1027.54 1027.66 1027.86 1027.98 1028.10 1028.14 1028.22 1028.30 1028.34 1028.46 1028.46 1028.46 1028.26 1028.30 1028.38 1028.34 1028.18 1028.18 1028.18 1028.30 1028.26 1028.06 1027.98 1028.10 1028.26 1028.34 1028.30 1028.26 1028.18 1028.10 1027.82 1027.46 1027.38 1027.30 1027.26 1027.06 1026.90 1026.78 1026.94 1026.86 1026.82 1026.94 1026.90 1026.98 1027.02 1027.06 1026.98 1026.98 1026.94 1027.02 1027.02 1027.10 1027.14 1027.22 1027.30 1027.22 1027.22 1027.30 1027.26 1027.02 1026.90 1026.70
1027.06 1027.30 1027.42 1027.54 1027.58 1027.62 1027.66 1027.74 1027.86 1027.90 1027.94 1028.06 1028.06 1027.98 1027.82 1027.86 1027.74 1027.82 1028.02 1028.06 1027.98 1027.90 1027.70 1027.54 1027.66 1027.78 1027.90 1027.90 1027.86 1027.78 1027.62 1027.22 1026.98 1026.90 1026.82 1026.54 1026.46 1026.34 1026.38 1026.42 1026.54 1026.74 1026.82 1026.82 1026.74 1026.66 1026.42 1026.34 1026.30 1026.34 1026.38 1026.46 1026.54 1026.62 1026.78 1026.82 1026.82 1026.82 1026.74 1026.70 1026.54 1026.34 1026.14
1026.70 1026.94 1027.06 1027.10 1027.02 1027.06 1027.14 1027.26 1027.42 1027.46 1027.46 1027.58 1027.62 1027.58 1027.50 1027.42 1027.46 1027.50 1027.54 1027.54 1027.42 1027.30 1027.14 1027.18 1027.30 1027.34 1027.38 1027.38 1027.30 1027.22 1027.06 1026.86 1026.78 1026.70 1026.58 1026.50 1026.46 1026.42 1026.38 1026.38 1026.34 1026.38 1026.46 1026.38 1026.26 1026.18 1025.90 1025.70 1025.78 1025.78 1025.70 1025.74 1025.82 1026.06 1026.26 1026.30 1026.30 1026.26 1026.30 1026.18 1026.06 1025.94 1025.82
1026.30 1026.54 1026.62 1026.58 1026.42 1026.38 1026.46 1026.66 1026.90 1026.98 1027.02 1027.06 1027.10 1027.10 1027.02 1026.90 1026.90 1026.94 1026.94 1027.02 1026.94 1026.90 1026.90 1026.86 1026.86 1026.90 1026.86 1026.78 1026.70 1026.62 1026.50 1026.42 1026.38 1026.30 1026.22 1026.26 1026.18 1026.18 1026.18 1026.18 1026.18 1026.26 1026.26 1026.26 1026.10 1025.82 1025.42 1025.18 1025.10 1025.30 1025.22 1025.22 1025.38 1025.54 1025.62 1025.66 1025.74 1025.74 1025.74 1025.66 1025.54 1025.46 1025.38
1025.86 1025.98 1026.10 1026.22 1026.06 1025.82 1025.86 1026.02 1026.30 1026.46 1026.54 1026.62 1026.62 1026.58 1026.54 1026.46 1026.42 1026.38 1026.42 1026.38 1026.26 1026.38 1026.34 1026.34 1026.30 1026.26 1026.18 1026.14 1026.10 1026.06 1025.98 1025.90 1025.82 1025.82 1025.78 1025.82 1025.82 1025.90 1025.94 1026.02 1026.10 1026.10 1026.18 1025.98 1025.62 1025.34 1025.06 1024.78 1024.66 1024.78 1024.78 1024.90 1025.02 1025.10 1025.22 1025.18 1025.18 1025.26 1025.18 1025.14 1025.06 1024.98 1024.94
1025.58 1025.74 1025.86 1025.82 1025.70 1025.58 1025.42 1025.50 1025.74 1025.82 1025.98 1026.18 1026.18 1026.10 1026.02 1025.98 1025.98 1025.94 1025.94 1025.90 1025.86 1025.82 1025.82 1025.82 1025.74 1025.66 1025.62 1025.62 1025.62 1025.66 1025.62 1025.58 1025.54 1025.54 1025.50 1025.46 1025.54 1025.62 1025.66 1025.74 1025.82 1025.82 1025.86 1025.46 1025.30 1025.10 1024.74 1024.38 1024.42 1024.46 1024.50 1024.66 1024.74 1024.74 1024.58 1024.70 1024.62 1024.70 1024.54 1024.70 1024.62 1024.54 1024.22
1025.30 1025.38 1025.42 1025.34 1025.22 1025.22 1025.18 1025.10 1025.10 1025.18 1025.38 1025.62 1025.78 1025.78 1025.78 1025.78 1025.74 1025.70 1025.66 1025.66 1025.58 1025.58 1025.54 1025.46 1025.42 1025.30 1025.22 1025.22 1025.22 1025.22 1025.10 1025.06 1025.02 1025.02 1024.98 1025.02 1025.10 1025.10 1025.22 1025.34 1025.38 1025.34 1025.22 1024.98 1024.78 1024.50 1024.30 1024.18 1024.18 1024.26 1024.30 1024.22 1024.34 1024.22 1024.14 1024.38 1024.26 1024.18 1023.94 1024.10 1024.06 1023.94 1023.34
1024.78 1024.82 1024.70 1024.62 1024.66 1024.78 1024.78 1024.66 1024.50 1024.42 1024.62 1024.90 1025.14 1025.26 1025.42 1025.54 1025.62 1025.62 1025.62 1025.54 1025.50 1025.50 1025.42 1025.30 1025.14 1025.06 1024.98 1025.02 1024.98 1024.98 1024.98 1024.86 1024.82 1024.78 1024.74 1024.70 1024.78 1024.82 1024.86 1024.86 1024.86 1024.86 1024.74 1024.50 1024.34 1024.14 1024.10 1023.94 1023.98 1023.82 1023.78 1023.86 1023.90 1023.74 1023.74 1023.90 1023.90 1023.74 1023.54 1023.62 1023.66 1023.34 1022.58
1023.98 1024.10 1024.10 1024.14 1024.18 1024.22 1024.14 1024.10 1023.82 1023.54 1023.90 1024.18 1024.38 1024.62 1024.78 1024.98 1025.06 1025.14 1025.14 1025.02 1024.94 1024.90 1024.86 1024.86 1024.74 1024.70 1024.70 1024.70 1024.62 1024.54 1024.54 1024.46 1024.50 1024.42 1024.42 1024.38 1024.38 1024.50 1024.58 1024.66 1024.70 1024.46 1024.10 1023.94 1023.94 1023.74 1023.66 1023.50 1023.58 1023.42 1023.50 1023.46 1023.38 1023.22 1023.30 1023.46 1023.46 1023.34 1023.30 1023.14 1023.26 1022.66 1022.26
1023.34 1023.38 1023.62 1023.74 1023.66 1023.82 1023.62 1023.26 1023.02 1023.34 1023.58 1023.78 1023.94 1024.02 1024.02 1024.02 1024.02 1024.02 1024.02 1024.06 1024.02 1023.98 1023.78 1023.54 1023.46 1023.38 1023.58 1023.66 1023.82 1023.78 1023.74 1023.74 1023.78 1023.74 1023.74 1023.78 1023.86 1023.98 1024.10 1024.10 1024.10 1023.94 1023.66 1023.62 1023.54 1023.42 1023.42 1023.26 1023.26 1023.06 1023.10 1023.02 1022.82 1022.70 1022.86 1022.94 1022.90 1022.70 1022.82 1022.70 1022.50 1022.22 1021.78
1023.10 1023.22 1023.26 1023.38 1023.38 1023.38 1023.46 1023.34 1023.30 1023.26 1023.26 1023.38 1023.46 1023.50 1023.46 1023.46 1023.42 1023.38 1023.34 1023.38 1023.42 1023.30 1023.22 1022.98 1022.94 1022.74 1022.98 1022.90 1022.98 1022.90 1022.78 1022.86 1022.94 1022.90 1022.94 1022.90 1023.14 1023.34 1023.38 1023.38 1023.38 1023.22 1023.22 1023.14 1023.06 1023.02 1022.98 1022.94 1022.90 1022.62 1022.58 1022.46 1022.30 1022.22 1022.14 1022.30 1022.34 1022.30 1022.22 1022.06 1021.86 1021.54 1021.14
1022.82 1022.86 1022.90 1022.98 1023.06 1023.10 1023.02 1022.98 1022.98 1022.98 1022.90 1022.82 1022.82 1022.86 1022.86 1022.82 1022.82 1022.82 1022.82 1022.86 1022.98 1022.82 1022.46 1022.62 1022.42 1022.26 1022.30 1022.38 1022.38 1022.22 1022.34 1022.38 1022.38 1022.34 1022.38 1022.38 1022.50 1022.46 1022.66 1022.78 1022.54 1022.46 1022.54 1022.46 1022.46 1022.42 1022.38 1022.38 1022.30 1022.18 1022.10 1022.02 1021.90 1021.86 1021.70 1021.66 1021.62 1021.66 1021.62 1021.46 1021.34 1021.02 1020.86
1022.46 1022.50 1022.54 1022.58 1022.54 1022.54 1022.50 1022.46 1022.50 1022.54 1022.46 1022.38 1022.26 1022.26 1022.34 1022.38 1022.42 1022.42 1022.46 1022.58 1022.58 1022.38 1021.98 1022.06 1022.06 1021.82 1021.74 1021.86 1021.74 1021.74 1021.82 1021.78 1021.86 1021.86 1021.86 1021.94 1021.90 1021.74 1021.74 1021.90 1021.86 1021.90 1021.90 1021.86 1021.82 1021.82 1021.74 1021.74 1021.70 1021.66 1021.58 1021.50 1021.46 1021.38 1021.14 1021.10 1020.98 1020.94 1020.94 1020.82 1020.62 1020.34 1020.34
1022.18 1022.26 1022.34 1022.30 1022.22 1022.14 1022.18 1022.14 1022.14 1022.10 1022.02 1022.02 1022.02 1022.02 1022.06 1022.14 1022.10 1022.10 1022.06 1022.14 1021.94 1021.98 1021.62 1021.54 1021.58 1021.38 1021.30 1021.30 1021.38 1021.34 1021.42 1021.34 1021.30 1021.34 1021.34 1021.34 1021.34 1021.26 1021.30 1021.26 1021.38 1021.42 1021.30 1021.26 1021.26 1021.18 1021.10 1021.14 1021.10 1021.14 1021.02 1020.86 1020.86 1020.78 1020.70 1020.50 1020.42 1020.42 1020.30 1020.10 1020.02 1019.82 1019.74
1021.90 1022.02 1022.10 1022.06 1021.98 1021.94 1021.94 1021.98 1021.94 1021.90 1021.82 1021.74 1021.78 1021.86 1021.86 1021.90 1021.78 1021.58 1021.58 1021.62 1021.46 1021.34 1021.14 1021.06 1020.94 1020.82 1020.70 1020.86 1020.78 1020.82 1020.90 1020.78 1020.78 1020.86 1020.86 1020.78 1020.74 1020.74 1020.78 1020.82 1020.82 1020.78 1020.78 1020.74 1020.74 1020.66 1020.62 1020.58 1020.58 1020.54 1020.50 1020.38 1020.22 1020.14 1019.98 1019.82 1019.82 1019.82 1019.78 1019.62 1019.50 1019.42 1019.22
1021.62 1021.82 1021.90 1021.86 1021.74 1021.70 1021.74 1021.74 1021.70 1021.70 1021.62 1021.54 1021.50 1021.50 1021.62 1021.50 1021.22 1021.22 1021.02 1021.06 1020.98 1021.02 1020.78 1020.86 1020.62 1020.54 1020.34 1020.46 1020.42 1020.42 1020.42 1020.38 1020.34 1020.26 1020.26 1020.26 1020.30 1020.18 1020.18 1020.18 1020.18 1020.18 1020.18 1020.18 1020.18 1020.06 1020.06 1020.06 1020.02 1020.02 1019.98 1019.90 1019.74 1019.62 1019.46 1019.34 1019.26 1019.18 1019.14 1019.06 1018.98 1018.90 1018.78
Wind_Speed
10 9 8 8 7 6 6 6 5 5 4 4 4 4 4 4 4 4 4 3 4 3 4 4 4 5 4 3 4 4 4 4 4 4 5 4 4 5 5 6 7 9 14 7 5 7 5 6 9 10 7 10 6 7 7 10 8 8 7 8 8 8 15
8 7 10 7 6 6 6 5 5 5 4 5 5 4 4 5 5 4 4 3 4 4 4 4 5 5 4 4 5 4 5 5 5 4 4 5 5 6 6 6 7 9 8 14 3 6 5 7 6 9 7 8 10 9 8 9 8 6 6 7 8 8 7
9 9 9 7 7 7 6 7 5 5 5 5 5 5 5 5 5 4 4 5 6 5 4 4 5 5 4 4 5 5 5 4 5 4 6 6 5 6 7 6 7 6 9 10 10 3 7 4 5 6 10 8 7 8 8 10 8 8 7 7 8 8 6
8 8 8 8 8 7 6 6 5 5 5 5 5 5 6 5 5 5 5 6 5 5 5 6 5 5 5 5 6 6 5 5 5 6 6 6 5 6 7 6 6 8 9 7 12 5 4 5 7 8 8 8 8 8 8 7 8 7 8 9 8 7 5
7 8 9 9 8 8 7 7 6 6 5 5 5 5 5 5 4 5 5 6 6 5 6 6 7 5 5 5 7 6 6 5 6 6 6 7 6 6 6 6 6 8 7 10 12 12 5 6 7 7 8 7 8 7 7 6 6 7 8 8 9 7 6
8 11 11 8 7 7 7 6 7 7 6 6 5 5 5 4 4 5 6 6 6 6 6 7 7 6 6 6 8 7 6 6 7 7 7 8 6 6 5 6 7 6 8 9 11 10 12 5 7 8 6 6 6 7 9 8 5 4 4 6 9 8 4
11 9 8 7 6 7 7 7 8 7 7 6 5 5 5 5 5 6 4 5 7 6 6 7 7 7 7 8 8 8 7 7 7 7 8 8 7 7 6 7 7 7 8 9 10 9 8 10 6 6 11 4 5 7 7 9 9 7 3 4 7 12 6
9 9 7 6 7 6 6 7 7 7 6 6 5 5 5 5 6 6 5 5 5 7 7 7 7 7 8 8 9 9 8 7 8 6 8 7 6 7 7 7 7 7 8 8 8 9 9 7 8 7 7 6 4 4 3 3 3 9 11 9 8 9 9
8 9 6 5 6 5 6 5 7 6 6 6 6 5 6 6 6 6 7 6 7 7 8 7 7 8 8 9 12 14 12 11 10 7 8 7 7 7 8 7 7 7 7 7 8 10 7 9 9 8 7 6 4 4 6 5 5 9 7 9 10 12 6
6 9 10 7 6 5 4 5 5 7 10 10 7 6 6 6 6 6 7 7 6 7 7 8 8 8 13 15 16 16 17 18 17 17 12 9 7 8 8 8 8 8 7 7 9 9 8 10 11 8 6 6 5 5 5 7 6 10 9 8 9 11 6
7 8 6 7 8 8 6 6 5 10 13 15 16 10 8 8 8 9 8 8 7 7 8 7 8 9 11 14 15 14 19 19 20 20 20 20 17 13 10 8 9 10 8 8 10 8 8 10 13 10 7 8 7 4 5 6 7 8 8 7 9 12 5
6 6 6 7 7 7 6 6 8 13 15 16 16 14 9 8 7 7 7 8 8 8 8 8 7 7 7 8 10 11 12 16 19 21 21 21 21 21 22 19 14 9 9 9 10 10 9 8 12 11 7 8 4 6 6 6 7 8 8 9 9 9 10
6 7 8 8 9 8 7 7 8 13 15 15 15 16 13 6 8 7 7 8 8 10 10 8 7 7 7 7 14 12 11 11 11 14 15 13 14 16 18 20 22 20 13 7 11 11 13 9 11 11 9 5 4 3 8 8 9 8 9 9 9 10 10
7 6 9 9 9 7 6 7 8 13 15 15 15 15 13 8 8 8 8 8 8 7 8 9 9 9 10 8 7 6 5 2 3 4 4 5 6 7 9 14 17 18 19 16 14 12 14 10 7 12 8 7 7 10 11 10 11 9 10 9 9 7 9
8 8 8 8 7 7 7 7 10 13 15 15 15 15 13 7 7 7 8 9 9 9 9 9 8 7 7 5 4 4 4 5 6 6 7 8 10 9 9 10 11 11 9 10 10 12 13 12 10 12 11 11 11 13 13 12 12 8 6 6 4 7 8
7 8 8 8 7 7 8 7 11 13 15 15 14 15 8 6 6 7 7 8 8 9 9 8 8 8 8 8 8 7 10 11 8 7 10 11 11 10 9 11 11 15 14 13 12 12 13 12 12 17 15 15 13 11 11 5 2 3 5 6 8 11 6
8 7 7 7 7 8 8 7 9 12 14 14 15 11 5 5 5 6 7 8 7 8 9 9 8 7 8 8 9 8 12 13 12 10 12 12 12 10 9 11 9 14 19 23 24 24 24 25 26 26 26 22 20 12 1 2 5 7 3 7 11 11 6
7 6 7 8 8 8 8 7 7 12 12 15 15 12 7 5 6 7 8 8 8 8 9 10 13 11 8 8 9 11 15 17 13 12 12 12 13 15 13 12 8 7 9 16 21 22 23 24 25 25 23 22 19 16 13 8 9 3 1 9 7 14 7
6 6 5 6 7 8 9 7 6 10 12 15 15 11 5 5 5 7 8 7 8 7 8 9 9 13 12 10 10 13 16 19 15 12 11 12 12 14 14 10 6 7 8 7 7 9 9 11 11 10 10 9 10 12 11 7 7 2 5 10 9 10 9
6 6 5 5 6 6 7 7 7 7 12 14 16 16 8 5 7 8 9 8 8 8 8 7 5 7 10 13 15 15 17 18 18 14 11 9 11 12 16 7 9 9 10 10 10 9 7 9 7 7 6 6 7 9 9 11 8 7 7 9 8 8 7
5 5 5 4 5 6 7 7 7 8 11 13 14 16 12 6 8 8 7 7 7 7 9 8 7 5 7 11 14 15 17 19 20 17 13 12 12 11 11 10 10 10 12 8 5 7 7 8 7 7 6 6 6 6 6 6 8 8 7 9 9 9 9
5 5 5 5 6 6 7 7 9 8 9 12 14 15 15 8 8 8 7 8 8 8 9 9 6 5 7 11 14 15 17 19 18 19 12 11 17 20 19 12 5 4 4 6 7 8 9 9 8 7 6 6 6 6 7 7 8 8 8 9 9 10 10
5 5 5 6 6 6 7 7 7 10 10 11 13 14 15 15 11 13 9 8 9 9 10 6 6 6 9 13 14 15 17 17 18 16 11 18 21 21 21 17 10 8 8 9 9 10 11 10 9 8 8 7 6 6 6 7 8 8 8 9 9 10 10
5 4 5 7 7 6 5 6 6 8 12 10 12 13 15 15 15 15 9 8 9 8 8 8 7 7 10 14 15 17 17 17 16 12 16 19 19 19 15 9 8 7 8 8 9 11 11 11 9 7 8 7 5 5 6 7 7 8 9 9 9 9 11
5 6 6 5 8 8 6 5 6 6 8 11 11 13 14 14 15 15 16 11 8 9 8 9 14 14 15 15 16 17 17 14 14 17 17 16 15 13 7 6 6 8 8 10 11 11 11 11 9 8 8 6 5 5 5 4 4 6 8 8 8 8 8
5 5 5 7 7 7 8 5 5 6 5 6 8 9 12 14 14 14 15 15 11 11 13 14 13 15 15 13 12 10 8 8 9 11 13 14 13 8 7 7 8 8 9 10 10 10 11 10 8 7 6 5 5 5 8 5 5 5 7 6 7 7 8
6 6 6 7 7 7 7 7 6 6 4 6 6 6 6 6 7 9 10 9 8 8 8 10 10 9 11 10 13 14 13 12 11 10 9 8 7 7 7 8 8 9 10 10 9 10 9 8 8 6 6 7 6 8 7 5 7 6 7 5 6 7 9
7 7 8 7 6 6 6 7 7 6 5 6 6 6 5 5 5 6 6 7 7 7 7 8 8 10 8 7 7 7 6 7 6 7 7 7 6 7 8 8 10 11 9 9 8 9 8 8 7 8 8 7 7 8 7 5 7 6 7 5 5 6 9
7 7 7 7 6 6 7 7 9 8 4 7 7 8 6 6 6 6 7 8 11 9 7 7 8 7 7 6 7 7 7 7 6 7 7 8 7 7 7 7 7 9 10 9 7 9 8 9 7 8 7 7 7 8 7 5 7 7 7 5 6 10 9
8 7 6 6 7 7 9 9 8 1 4 6 8 11 12 13 13 12 10 11 14 11 8 7 8 7 7 7 6 7 7 7 7 7 7 7 7 8 8 8 8 9 9 7 8 8 8 8 8 9 7 8 8 8 6 6 7 7 6 7 7 9 9
15 15 12 8 8 7 12 13 13 17 18 17 17 16 16 15 15 15 15 15 10 8 8 8 8 8 6 7 7 8 8 7 7 7 7 7 6 7 8 9 8 8 8 8 8 8 8 8 8 9 8 9 8 8 7 6 6 7 6 8 8 9 9
15 16 16 17 15 11 8 11 15 16 17 17 17 16 15 15 15 15 15 14 11 9 9 8 9 9 8 7 7 8 7 7 7 7 7 7 6 8 7 8 9 8 7 7 7 8 8 8 8 9 9 8 9 8 8 7 7 6 7 8 8 9 9
14 15 16 17 17 19 17 14 13 14 16 17 17 17 15 14 16 15 14 11 8 9 10 8 8 9 8 7 9 7 7 7 7 7 7 7 8 9 7 7 8 7 7 7 8 7 8 8 8 8 9 9 8 8 9 7 8 7 7 8 9 9 9
12 13 14 15 17 17 16 16 16 16 17 16 16 16 15 13 11 13 15 12 9 7 10 8 8 9 9 8 7 7 7 8 7 7 8 8 8 8 7 7 5 6 7 7 7 8 8 8 8 8 8 8 8 8 8 8 8 7 8 8 8 9 8
5 7 9 9 9 11 13 13 13 14 15 16 15 15 14 13 9 8 7 7 7 8 9 9 9 9 9 7 8 7 7 8 7 7 7 8 8 7 7 6 6 7 7 7 7 7 8 8 8 8 8 8 8 8 8 8 8 8 8 9 8 8 9
6 4 5 10 12 12 11 12 14 14 16 16 15 14 11 8 8 7 7 7 7 8 9 8 9 8 9 7 8 6 7 7 8 8 8 7 7 8 7 7 7 7 7 7 7 8 8 8 8 8 8 8 9 10 10 9 8 8 8 8 8 8 9
Wind_Direction
144 159 166 165 172 171 166 173 184 179 181 188 197 194 195 206 202 211 221 205 234 228 217 220 224 230 233 216 222 226 225 230 226 223 224 216 211 229 217 199 225 242 271 267 243 264 267 286 300 296 297 298 302 308 308 309 303 300 297 297 294 295 303
165 166 157 168 174 167 176 183 185 189 186 192 195 202 196 201 205 211 220 207 232 227 225 218 223 237 232 220 223 222 225 221 227 221 228 222 210 225 227 211 213 248 258 282 249 279 273 280 278 285 288 297 309 306 305 302 301 293 287 288 292 293 293
152 148 146 159 172 175 182 187 192 187 189 198 198 205 206 203 203 210 215 219 230 224 216 221 223 236 220 221 229 229 228 221 225 219 222 232 214 228 234 223 220 237 261 268 278 232 281 261 276 271 296 296 289 291 294 295 297 298 293 284 282 285 285
157 157 166 175 177 184 185 188 191 195 197 204 202 207 210 204 207 210 217 224 227 221 211 222 229 234 213 215 229 232 221 222 219 218 226 231 227 223 236 233 224 232 246 271 287 253 254 283 290 284 280 287 283 285 287 281 286 285 285 285 280 276 279
162 168 163 178 185 182 189 192 190 194 201 210 209 211 214 211 209 219 223 225 226 221 217 223 225 228 207 207 230 236 221 214 219 222 223 232 226 224 233 235 233 239 238 260 266 282 261 269 272 270 279 279 290 290 275 274 271 280 285 284 279 282 281
171 161 164 182 187 189 190 192 190 199 204 209 207 209 213 215 220 226 228 227 226 223 220 225 228 224 210 213 221 238 222 211 222 221 226 232 228 226 226 234 241 238 246 250 264 273 291 256 274 290 263 272 265 281 296 293 281 267 270 282 293 284 277
154 172 175 188 184 192 192 182 178 184 199 209 206 212 214 222 228 233 215 221 226 227 225 226 228 225 215 219 224 231 229 221 224 221 231 228 229 228 225 234 237 238 246 249 265 271 261 284 270 263 290 269 261 263 266 290 305 298 257 263 281 298 301
173 160 173 187 186 190 181 181 188 188 206 207 207 208 221 220 230 238 234 223 220 220 231 227 227 227 221 220 225 223 230 218 228 218 233 229 219 224 227 236 242 243 246 254 262 264 282 269 283 281 260 273 261 282 274 227 269 303 310 306 292 277 297
166 156 170 172 180 184 189 194 195 199 202 205 213 209 224 225 229 236 244 238 233 233 232 230 228 228 227 224 227 225 225 222 216 212 229 229 210 223 223 235 239 239 244 254 254 271 265 275 276 269 284 286 272 256 282 302 308 291 290 295 300 296 279
167 160 167 179 188 191 186 202 203 208 207 209 204 209 217 225 229 231 241 241 241 240 230 227 225 226 226 226 229 230 230 231 228 223 219 222 208 217 219 226 236 238 238 246 257 258 272 277 271 275 269 278 274 292 300 300 295 293 297 296 286 284 279
170 180 183 189 180 187 203 212 208 210 222 229 223 205 209 215 231 236 231 223 224 237 248 230 219 224 231 232 234 234 235 235 233 231 228 227 222 214 208 220 231 239 226 241 253 259 260 264 276 273 280 277 291 284 283 283 286 283 295 293 305 305 308
187 179 188 170 197 213 215 216 208 220 232 236 240 231 207 188 204 210 217 223 235 246 250 251 240 227 216 221 223 224 232 236 237 237 235 232 230 228 224 222 227 239 248 242 258 261 251 267 268 282 278 283 294 287 281 272 274 271 274 280 273 271 281
180 195 176 186 192 215 219 223 209 227 236 242 244 246 246 214 204 211 207 220 220 239 251 253 251 252 242 234 239 235 225 225 232 237 241 241 238 235 234 236 240 245 248 258 265 267 268 243 275 277 271 264 268 265 278 281 274 269 259 255 261 266 278
193 191 186 194 210 220 222 225 207 225 239 244 248 250 250 240 238 236 245 243 242 240 242 247 255 260 257 246 235 229 230 194 207 231 257 259 255 252 254 256 258 259 260 260 261 262 263 260 248 267 273 268 260 260 260 264 263 258 265 261 263 281 278
186 201 202 206 207 217 228 225 212 227 239 246 250 252 254 247 242 238 241 238 238 241 242 244 245 249 259 252 234 207 210 220 238 240 245 247 248 246 246 245 249 250 249 251 248 254 259 265 260 266 263 256 248 245 250 249 262 278 278 281 279 274 258
168 201 204 203 202 213 234 229 217 230 240 245 250 253 256 250 248 249 252 255 259 262 263 263 262 264 265 267 266 262 260 256 248 242 245 250 250 248 245 245 240 246 243 238 237 239 246 250 245 244 239 237 236 243 253 279 336 315 285 311 297 282 292
197 203 201 200 201 210 232 235 219 223 238 247 252 256 255 247 249 248 248 250 253 257 259 258 255 253 257 258 259 254 256 255 252 253 252 254 254 251 249 253 247 245 251 260 264 263 258 250 245 246 253 264 270 280 90 135 288 277 319 303 295 284 286
200 204 202 203 207 207 222 237 217 214 233 248 252 253 243 233 235 241 245 250 246 250 252 250 248 244 239 241 248 253 255 258 254 251 252 256 260 262 259 261 255 251 245 251 261 267 271 276 283 290 294 290 292 303 311 311 280 284 314 278 262 284 287
196 203 203 202 210 208 217 237 229 217 226 246 254 256 243 243 245 252 252 252 258 255 255 256 250 246 244 242 243 243 250 258 256 252 248 250 254 259 260 260 257 247 256 253 255 254 258 265 266 269 270 278 285 281 277 267 267 203 226 269 271 271 305
193 201 208 199 202 217 220 230 238 221 228 241 254 255 248 218 228 238 243 240 242 255 252 243 238 235 239 246 251 251 255 260 258 257 258 257 260 262 267 262 258 251 254 258 251 260 245 252 248 247 245 253 260 264 263 264 259 242 227 245 257 253 235
194 201 217 213 214 218 227 220 236 239 233 237 246 253 252 240 244 248 249 251 253 252 260 259 246 233 226 238 244 247 251 256 259 259 257 250 251 250 265 266 255 256 260 266 258 256 253 253 247 241 234 240 242 243 238 240 245 240 223 231 242 247 245
193 201 224 232 229 225 233 227 222 244 240 237 240 248 249 243 233 229 226 239 241 246 249 249 246 232 221 225 235 240 248 257 260 261 260 258 264 271 276 281 278 251 250 259 265 268 268 265 263 260 253 244 237 234 231 228 233 236 236 232 230 232 240
196 205 229 248 247 236 233 229 229 228 242 242 240 244 246 242 242 240 238 231 240 238 251 252 249 240 226 231 238 242 249 258 264 267 265 270 272 274 276 279 277 279 278 276 276 276 271 269 263 262 260 254 244 231 225 230 233 233 233 237 237 236 234
197 207 229 249 264 256 238 217 222 230 231 238 238 239 243 245 244 241 233 230 238 243 246 251 246 236 232 240 247 251 255 258 259 258 261 265 268 270 270 266 266 262 263 267 268 267 267 266 264 258 259 257 244 238 228 231 229 234 234 236 240 239 242
195 211 229 243 255 265 262 225 213 230 226 230 236 240 243 245 247 247 246 246 243 240 240 241 249 248 247 246 249 254 260 262 261 262 265 265 265 267 262 260 259 261 264 264 260 262 266 267 264 258 260 261 251 247 242 243 244 237 241 243 245 246 246
206 221 226 244 251 258 265 259 229 233 226 220 235 242 246 247 248 250 249 249 249 244 247 249 252 255 258 261 260 263 260 260 257 257 256 255 255 250 249 249 254 255 251 252 255 254 259 264 273 267 262 258 257 255 256 243 246 242 251 239 248 258 252
214 226 232 243 246 253 259 267 260 241 219 213 221 233 240 246 253 256 259 261 259 263 262 260 258 253 255 256 255 255 257 258 260 257 254 247 241 239 234 236 232 237 240 246 249 255 258 265 267 276 276 267 259 258 258 230 248 247 255 239 242 246 260
214 222 230 239 240 246 257 263 266 252 219 209 215 226 225 228 235 238 233 245 249 245 248 250 254 257 259 261 265 263 264 259 252 249 249 245 235 236 237 236 240 244 242 245 248 258 266 270 270 270 267 269 260 258 259 237 239 237 255 232 251 252 259
216 222 228 227 232 238 257 259 260 259 190 200 202 205 213 221 224 227 236 233 247 253 242 240 248 242 247 235 243 243 243 244 242 243 239 243 240 239 236 239 232 237 241 244 246 252 254 261 262 265 263 262 263 258 257 230 243 240 243 245 224 248 260
220 221 222 229 234 212 234 245 255 224 215 233 235 243 247 255 256 255 253 250 249 247 255 249 255 243 235 239 225 239 241 242 234 240 240 236 228 230 232 232 232 234 241 238 241 246 250 255 257 262 261 259 259 265 252 239 231 246 219 241 233 251 254
238 243 241 234 253 241 234 248 262 269 272 271 268 265 266 266 266 267 268 270 271 260 249 262 256 258 244 247 240 245 250 246 243 242 243 244 227 226 228 230 230 231 231 234 241 242 241 247 248 255 254 258 258 261 261 252 239 242 237 235 244 251 260
241 245 247 248 247 252 263 252 253 258 265 269 270 270 269 270 270 271 272 271 270 269 258 249 259 260 252 245 247 247 247 244 244 246 244 249 245 242 224 226 234 230 222 231 232 236 240 240 244 246 251 251 257 256 258 253 253 237 243 245 243 248 255
246 248 250 251 253 251 250 256 260 259 263 268 272 275 275 276 276 275 273 273 261 251 263 248 252 256 256 246 251 252 247 250 242 246 246 238 242 250 241 224 232 228 229 229 230 234 241 240 243 245 248 247 247 249 254 248 249 245 244 247 254 255 251
249 252 256 258 258 258 258 259 263 268 270 271 273 276 280 281 277 270 262 250 246 241 252 253 252 254 253 252 249 252 251 252 250 246 246 248 245 247 249 244 228 224 233 236 234 237 243 242 243 242 248 250 246 245 248 251 249 246 248 250 247 256 256
260 255 251 253 251 252 255 257 259 262 267 271 273 274 276 279 275 269 257 248 242 246 250 253 251 256 255 247 250 246 242 250 248 249 245 246 250 249 245 244 233 233 232 235 238 240 242 240 242 241 241 245 249 248 248 247 246 243 241 250 252 252 259
249 259 262 254 256 252 250 253 258 263 266 266 268 268 268 264 256 259 254 249 246 241 250 248 254 255 260 254 256 252 249 247 250 247 248 244 245 250 247 244 241 237 236 236 237 241 241 242 241 240 243 246 247 246 249 251 249 250 247 246 250 250 252